Hourly Weather Alikanas

Today, 30 November, Monday

Time Temperature Precipitation Wind Pressure Humidity
00:00 +16°C° 0.2 mm 5 mps 758 mmHg 82%
01:00 +16°C° 0 mm 5 mps 758 mmHg 79%
02:00 +16°C° 0.3 mm 5 mps 757 mmHg 80%
03:00 +16°C° 0.3 mm 5 mps 757 mmHg 80%
04:00 +17°C° 0.3 mm 4 mps 757 mmHg 80%
05:00 +17°C° 0.1 mm 4 mps 757 mmHg 81%
06:00 +15°C° 0.1 mm 4 mps 758 mmHg 81%
07:00 +15°C° 0.1 mm 4 mps 758 mmHg 82%
08:00 +17°C° 0.2 mm 4 mps 758 mmHg 78%
09:00 +18°C° 0.2 mm 4 mps 759 mmHg 74%
10:00 +18°C° 0.2 mm 4 mps 759 mmHg 70%
11:00 +18°C° 0 mm 4 mps 759 mmHg 69%
12:00 +19°C° 0 mm 4 mps 759 mmHg 69%
13:00 +19°C° 0 mm 4 mps 758 mmHg 68%
14:00 +19°C° 0 mm 4 mps 759 mmHg 69%
15:00 +17°C° 0 mm 5 mps 759 mmHg 70%
16:00 +17°C° 0 mm 5 mps 759 mmHg 71%
17:00 +17°C° 0 mm 5 mps 760 mmHg 72%
18:00 +16°C° 0 mm 6 mps 760 mmHg 74%
19:00 +16°C° 0 mm 6 mps 760 mmHg 75%
20:00 +16°C° 0 mm 5 mps 760 mmHg 77%
21:00 +16°C° 0 mm 5 mps 761 mmHg 79%
22:00 +16°C° 0 mm 5 mps 761 mmHg 81%
23:00 +15°C° 0 mm 4 mps 761 mmHg 81%

Tomorrow, 1 December, Tuesday

Time Temperature Precipitation Wind Pressure Humidity
00:00 +15°C° 0 mm 4 mps 761 mmHg 81%
01:00 +15°C° 0 mm 4 mps 761 mmHg 80%
02:00 +15°C° 0 mm 4 mps 761 mmHg 80%
03:00 +17°C° 0 mm 4 mps 761 mmHg 80%
04:00 +17°C° 0 mm 3 mps 761 mmHg 80%
05:00 +17°C° 0 mm 3 mps 761 mmHg 81%
06:00 +17°C° 0 mm 3 mps 762 mmHg 81%
07:00 +17°C° 0 mm 3 mps 762 mmHg 82%
08:00 +17°C° 0 mm 3 mps 762 mmHg 80%
09:00 +17°C° 0 mm 3 mps 762 mmHg 77%
10:00 +17°C° 0 mm 2 mps 762 mmHg 75%
11:00 +17°C° 0 mm 3 mps 762 mmHg 75%
12:00 +17°C° 0 mm 3 mps 762 mmHg 74%
13:00 +17°C° 0 mm 3 mps 761 mmHg 74%
14:00 +17°C° 0 mm 3 mps 761 mmHg 73%
15:00 +17°C° 0 mm 4 mps 761 mmHg 73%
16:00 +15°C° 0 mm 4 mps 761 mmHg 72%
17:00 +16°C° 0 mm 3 mps 762 mmHg 71%
18:00 +14°C° 0 mm 3 mps 762 mmHg 69%
19:00 +15°C° 0 mm 2 mps 762 mmHg 68%
20:00 +15°C° 0 mm 2 mps 762 mmHg 65%
21:00 +15°C° 0 mm 2 mps 763 mmHg 63%
22:00 +15°C° 0 mm 2 mps 763 mmHg 61%
23:00 +15°C° 0 mm 2 mps 763 mmHg 60%

Day after tomorrow, 2 December, Wednesday

Time Temperature Precipitation Wind Pressure Humidity
00:00 +14°C° 0 mm 2 mps 763 mmHg 59%
01:00 +14°C° 0 mm 1 mps 763 mmHg 58%
02:00 +14°C° 0 mm 2 mps 762 mmHg 59%
03:00 +14°C° 0 mm 2 mps 762 mmHg 60%
04:00 +14°C° 0 mm 2 mps 762 mmHg 61%
05:00 +14°C° 0 mm 2 mps 762 mmHg 62%
06:00 +14°C° 0 mm 3 mps 762 mmHg 63%
07:00 +14°C° 0 mm 4 mps 762 mmHg 64%
08:00 +15°C° 0 mm 4 mps 762 mmHg 62%
09:00 +16°C° 0 mm 5 mps 763 mmHg 59%
10:00 +17°C° 0 mm 6 mps 763 mmHg 57%
11:00 +16°C° 0.2 mm 6 mps 762 mmHg 64%
12:00 +16°C° 0.2 mm 6 mps 762 mmHg 71%
13:00 +16°C° 0.2 mm 6 mps 762 mmHg 78%
14:00 +16°C° 0.5 mm 6 mps 761 mmHg 78%
15:00 +16°C° 0.5 mm 6 mps 761 mmHg 78%
16:00 +16°C° 0.5 mm 6 mps 761 mmHg 79%
17:00 +16°C° 0.6 mm 6 mps 761 mmHg 79%
18:00 +16°C° 0.6 mm 7 mps 762 mmHg 79%
19:00 +16°C° 0.6 mm 7 mps 762 mmHg 79%
20:00 +16°C° 0.5 mm 7 mps 762 mmHg 79%
21:00 +16°C° 0.5 mm 7 mps 762 mmHg 78%
22:00 +16°C° 0.5 mm 7 mps 762 mmHg 78%
23:00 +16°C° 0.4 mm 7 mps 762 mmHg 78%

3 December, Thursday

Time Temperature Precipitation Wind Pressure Humidity
00:00 +16°C° 0.4 mm 7 mps 762 mmHg 77%
01:00 +16°C° 0.4 mm 7 mps 762 mmHg 77%
02:00 +16°C° 0.1 mm 7 mps 761 mmHg 76%
03:00 +15°C° 0.1 mm 7 mps 761 mmHg 76%
04:00 +15°C° 0.1 mm 7 mps 760 mmHg 76%
05:00 +15°C° 0 mm 7 mps 761 mmHg 75%
06:00 +15°C° 0 mm 8 mps 761 mmHg 75%
07:00 +15°C° 0 mm 8 mps 761 mmHg 75%
08:00 +16°C° 0.1 mm 8 mps 761 mmHg 74%
09:00 +16°C° 0.1 mm 8 mps 761 mmHg 73%
10:00 +16°C° 0.1 mm 8 mps 760 mmHg 71%
11:00 +16°C° 0.3 mm 9 mps 760 mmHg 73%
12:00 +16°C° 0.3 mm 10 mps 759 mmHg 75%
13:00 +17°C° 0.3 mm 11 mps 758 mmHg 76%
14:00 +17°C° 0.5 mm 11 mps 758 mmHg 77%
15:00 +17°C° 0.5 mm 11 mps 758 mmHg 78%
16:00 +17°C° 0.5 mm 12 mps 758 mmHg 79%
17:00 +17°C° 0.7 mm 12 mps 758 mmHg 79%
18:00 +17°C° 0.7 mm 12 mps 757 mmHg 79%
19:00 +17°C° 0.7 mm 13 mps 757 mmHg 79%
20:00 +17°C° 1.1 mm 12 mps 757 mmHg 78%
21:00 +17°C° 1.1 mm 12 mps 757 mmHg 76%
22:00 +17°C° 1.1 mm 12 mps 756 mmHg 75%
23:00 +16°C° 1.5 mm 11 mps 756 mmHg 78%

4 December, Friday

Time Temperature Precipitation Wind Pressure Humidity
00:00 +16°C° 1.5 mm 10 mps 756 mmHg 81%
01:00 +16°C° 1.5 mm 10 mps 756 mmHg 84%
02:00 +16°C° 1 mm 9 mps 756 mmHg 80%
03:00 +16°C° 1 mm 8 mps 756 mmHg 76%
04:00 +16°C° 1 mm 7 mps 756 mmHg 72%
05:00 +16°C° 0 mm 6 mps 756 mmHg 71%
06:00 +15°C° 0 mm 5 mps 756 mmHg 70%
07:00 +15°C° 0 mm 5 mps 757 mmHg 68%
08:00 +16°C° 0.1 mm 5 mps 757 mmHg 67%
09:00 +16°C° 0.1 mm 5 mps 757 mmHg 66%
10:00 +17°C° 0.1 mm 5 mps 757 mmHg 66%
11:00 +17°C° 0 mm 5 mps 757 mmHg 65%
12:00 +17°C° 0 mm 5 mps 757 mmHg 64%
13:00 +16°C° 0 mm 5 mps 757 mmHg 63%
14:00 +16°C° 0 mm 5 mps 757 mmHg 62%
15:00 +17°C° 0 mm 4 mps 757 mmHg 62%
16:00 +16°C° 0 mm 3 mps 757 mmHg 62%
17:00 +16°C° 0 mm 3 mps 758 mmHg 61%
18:00 +16°C° 0 mm 2 mps 758 mmHg 61%
19:00 +16°C° 0 mm 2 mps 759 mmHg 61%
20:00 +15°C° 0 mm 2 mps 759 mmHg 62%
21:00 +15°C° 0 mm 2 mps 759 mmHg 62%
22:00 +15°C° 0 mm 2 mps 759 mmHg 62%
23:00 +15°C° 0 mm 2 mps 759 mmHg 63%

5 December, Saturday

Time Temperature Precipitation Wind Pressure Humidity
00:00 +14°C° 0 mm 3 mps 759 mmHg 64%
01:00 +14°C° 0 mm 3 mps 759 mmHg 66%
02:00 +15°C° 0 mm 4 mps 759 mmHg 67%
03:00 +15°C° 0 mm 4 mps 759 mmHg 68%
04:00 +15°C° 0 mm 5 mps 758 mmHg 69%
05:00 +15°C° 0 mm 5 mps 758 mmHg 71%
06:00 +15°C° 0 mm 6 mps 758 mmHg 72%
07:00 +15°C° 0 mm 6 mps 758 mmHg 74%
08:00 +16°C° 0 mm 7 mps 758 mmHg 71%
09:00 +17°C° 0 mm 7 mps 758 mmHg 68%
10:00 +17°C° 0 mm 8 mps 758 mmHg 66%
11:00 +17°C° 0.1 mm 8 mps 758 mmHg 68%
12:00 +17°C° 0.1 mm 8 mps 757 mmHg 71%
13:00 +18°C° 0.1 mm 9 mps 757 mmHg 73%
14:00 +18°C° 0.3 mm 9 mps 757 mmHg 75%
15:00 +18°C° 0.3 mm 9 mps 757 mmHg 77%
16:00 +18°C° 0.3 mm 9 mps 757 mmHg 79%
17:00 +18°C° 0.4 mm 8 mps 757 mmHg 78%
18:00 +18°C° 0.4 mm 8 mps 757 mmHg 77%
19:00 +18°C° 0.4 mm 8 mps 758 mmHg 76%
20:00 +18°C° 0.7 mm 8 mps 758 mmHg 75%
21:00 +18°C° 0.7 mm 9 mps 757 mmHg 74%
22:00 +18°C° 0.7 mm 9 mps 757 mmHg 74%
23:00 +18°C° 0.9 mm 10 mps 757 mmHg 74%
Show more